This is the latest recevied weather packets stored in our database for station/object WC4PEM. If no packets are shown the sender has not sent any weather packets the latest 1 day(s).
| Time | Temp. | Humidity | Pressure | Rain* | Wind** | Luminosity | Snow |
|---|---|---|---|---|---|---|---|
| 1778015067 | 31.11° C | 47% | 1013.3 hPa | 0 mm | 4.47 m/s, 64° | - | - |
| 1778014948 | 31.11° C | 47% | 1013.3 hPa | 0 mm | 4.47 m/s, 59° | - | - |
| 1778014767 | 31.11° C | 47% | 1013.3 hPa | 0 mm | 4.47 m/s, 59° | - | - |
| 1778014467 | 31.11° C | 47% | 1013.3 hPa | 0 mm | 3.58 m/s, 87° | - | - |
| 1778014167 | 31.11° C | 46% | 1013.3 hPa | 0 mm | 2.68 m/s, 70° | - | - |
| 1778013958 | 31.67° C | 44% | 1013.3 hPa | 0 mm | 3.13 m/s, 74° | - | - |
| 1778013867 | 31.67° C | 44% | 1013.3 hPa | 0 mm | 3.13 m/s, 74° | - | - |
| 1778013636 | 31.11° C | 45% | 1013.4 hPa | 0 mm | 3.58 m/s, 43° | - | - |
| 1778013567 | 31.11° C | 45% | 1013.4 hPa | 0 mm | 3.58 m/s, 43° | - | - |
| 1778013333 | 31.67° C | 44% | 1013.4 hPa | 0 mm | 2.68 m/s, 68° | - | - |
| 1778013267 | 31.67° C | 45% | 1013.4 hPa | 0 mm | 2.68 m/s, 47° | - | - |
| 1778012967 | 31.67° C | 44% | 1013.4 hPa | 0 mm | 2.68 m/s, 68° | - | - |
| 1778012667 | 31.67° C | 44% | 1013.4 hPa | 0 mm | 3.13 m/s, 31° | - | - |
| 1778012519 | 31.67° C | 44% | 1013.5 hPa | 0 mm | 2.68 m/s, 77° | - | - |
| 1778012367 | 31.67° C | 44% | 1013.5 hPa | 0 mm | 2.68 m/s, 77° | - | - |
| 1778012067 | 31.67° C | 44% | 1013.5 hPa | 0 mm | 3.13 m/s, 32° | - | - |
| 1778011767 | 31.67° C | 45% | 1013.5 hPa | 0 mm | 4.02 m/s, 24° | - | - |
| 1778011467 | 31.11° C | 46% | 1013.5 hPa | 0 mm | 4.47 m/s, 71° | - | - |
| 1778011216 | 30.56° C | 46% | 1013.5 hPa | 0 mm | 4.92 m/s, 48° | - | - |
| 1778011167 | 30.56° C | 46% | 1013.5 hPa | 0 mm | 4.92 m/s, 48° | - | - |
| 1778010938 | 31.11° C | 46% | 1013.6 hPa | 0 mm | 4.47 m/s, 48° | - | - |
| 1778010867 | 31.11° C | 46% | 1013.6 hPa | 0 mm | 4.47 m/s, 48° | - | - |
| 1778010567 | 31.11° C | 46% | 1013.6 hPa | 0 mm | 4.47 m/s, 90° | - | - |
| 1778010338 | 31.11° C | 47% | 1013.6 hPa | 0 mm | 4.47 m/s, 51° | - | - |
| 1778010305 | 31.11° C | 46% | 1013.8 hPa | 0 mm | 2.68 m/s, 63° | - | - |
* Rain latest hour (hover to see other rain measurements)
** Current wind speed in m/s (hover to see current wind gust speed)